TimePST,TemperatureF,Dew PointF,Humidity,Sea Level PressureIn,VisibilityMPH,Wind Direction,Wind SpeedMPH,Gust SpeedMPH,PrecipitationIn,Events,Conditions,WindDirDegrees,DateUTC
12:53 AM,5.0,-11.0,48,30.32,10.0,NNE,12.7,20.7,N/A,,Clear,30,2013-12-07 08:53:00
1:53 AM,3.9,-11.0,50,30.32,10.0,NNE,10.4,-,N/A,,Clear,30,2013-12-07 09:53:00
2:53 AM,3.9,-11.0,50,30.32,10.0,NNE,12.7,25.3,N/A,,Clear,30,2013-12-07 10:53:00
3:53 AM,3.9,-11.9,48,30.31,10.0,NNE,11.5,18.4,N/A,,Clear,20,2013-12-07 11:53:00
4:53 AM,3.0,-11.9,50,30.31,10.0,NNE,10.4,-,N/A,,Clear,20,2013-12-07 12:53:00
5:53 AM,3.0,-11.9,50,30.31,10.0,NNE,11.5,-,N/A,,Clear,20,2013-12-07 13:53:00
6:53 AM,3.0,-13.0,47,30.32,10.0,NNE,8.1,-,N/A,,Clear,30,2013-12-07 14:53:00
7:53 AM,3.9,-13.0,46,30.34,10.0,NNE,8.1,-,N/A,,Clear,30,2013-12-07 15:53:00
8:53 AM,7.0,-11.9,42,30.34,10.0,NNE,10.4,-,N/A,,Clear,30,2013-12-07 16:53:00
9:53 AM,10.0,-11.9,37,30.34,10.0,NNE,10.4,19.6,N/A,,Clear,30,2013-12-07 17:53:00
10:53 AM,12.9,-11.0,34,30.33,10.0,NE,9.2,-,N/A,,Clear,50,2013-12-07 18:53:00
11:53 AM,14.0,-11.9,31,30.32,10.0,NNE,12.7,20.7,N/A,,Clear,30,2013-12-07 19:53:00
12:53 PM,15.1,-11.0,31,30.31,10.0,NE,10.4,-,N/A,,Clear,40,2013-12-07 20:53:00
1:53 PM,15.1,-9.9,32,30.31,10.0,ENE,5.8,-,N/A,,Clear,60,2013-12-07 21:53:00
2:53 PM,15.1,-11.0,31,30.31,10.0,NE,4.6,-,N/A,,Clear,50,2013-12-07 22:53:00
3:53 PM,12.0,-11.9,34,30.34,10.0,Calm,Calm,-,N/A,,Clear,0,2013-12-07 23:53:00
4:53 PM,5.0,-9.9,50,30.36,10.0,Calm,Calm,-,N/A,,Clear,0,2013-12-08 00:53:00
5:53 PM,-0.0,-9.9,63,30.38,10.0,Calm,Calm,-,N/A,,Clear,0,2013-12-08 01:53:00
6:53 PM,-2.0,-9.9,69,30.40,8.0,NW,3.5,-,N/A,,Clear,310,2013-12-08 02:53:00
7:53 PM,-4.0,-11.0,72,30.41,10.0,Calm,Calm,-,N/A,,Clear,0,2013-12-08 03:53:00
8:53 PM,-5.1,-11.0,76,30.41,10.0,Calm,Calm,-,N/A,,Clear,0,2013-12-08 04:53:00
9:53 PM,-6.0,-11.9,75,30.41,10.0,Calm,Calm,-,N/A,,Clear,0,2013-12-08 05:53:00
10:53 PM,-0.0,-8.0,69,30.40,10.0,Calm,Calm,-,N/A,,Clear,0,2013-12-08 06:53:00
11:53 PM,-0.9,-7.1,75,30.41,10.0,SSE,3.5,-,N/A,,Clear,150,2013-12-08 07:53:00